QPF
0.03 0.03 0.03 0.04 0.05 0.03 0.03 0.03 0.02 0.02 0.02 0.02 0.03 0.04 0.05 0.04 0.03 0.03 0.03 0.04 0.03 0.02 0.02 0.01 0.02 0.02 0.02 0.02 0.03 0.04 0.03 0.03 0.03 0.04 0.04 0.03 0.04 0.04 0.04 0.05 0.05 0.03 0.03
0.03 0.04 0.04 0.08 0.06 0.04 0.04 0.03 0.02 0.01 0.01 0.02 0.03 0.03 0.04 0.05 0.05 0.04 0.04 0.04 0.03 0.04 0.04 0.03 0.04 0.04 0.03 0.02 0.04 0.06 0.04 0.04 0.03 0.03 0.03 0.03 0.03 0.03 0.02 0.02 0.02 0.03 0.04
0.03 0.05 0.09 0.08 0.06 0.07 0.08 0.05 0.04 0.03 0.02 0.02 0.02 0.02 0.03 0.04 0.05 0.04 0.04 0.03 0.03 0.03 0.03 0.03 0.04 0.05 0.04 0.04 0.04 0.06 0.05 0.04 0.04 0.05 0.05 0.04 0.04 0.02 0.02 0.02 0.02 0.03 0.05
0.02 0.02 0.05 0.11 0.09 0.15 0.15 0.09 0.05 0.03 0.03 0.02 0.02 0.02 0.02 0.02 0.03 0.04 0.04 0.04 0.04 0.04 0.04 0.04 0.05 0.05 0.04 0.04 0.04 0.05 0.06 0.05 0.04 0.05 0.03 0.04 0.05 0.04 0.03 0.02 0.03 0.04 0.07
0.03 0.02 0.03 0.06 0.12 0.17 0.15 0.07 0.05 0.04 0.03 0.03 0.02 0.02 0.01 0.01 0.02 0.03 0.04 0.05 0.06 0.07 0.07 0.07 0.07 0.06 0.05 0.06 0.05 0.05 0.07 0.08 0.07 0.05 0.04 0.04 0.04 0.03 0.03 0.03 0.03 0.03 0.05
0.03 0.03 0.03 0.02 0.05 0.07 0.05 0.06 0.08 0.06 0.04 0.02 0.03 0.02 0.02 0.02 0.02 0.02 0.04 0.08 0.10 0.09 0.10 0.09 0.08 0.07 0.07 0.08 0.08 0.07 0.08 0.10 0.08 0.06 0.07 0.06 0.06 0.03 0.02 0.02 0.03 0.03 0.04
0.04 0.02 0.02 0.02 0.02 0.02 0.01 0.02 0.04 0.05 0.04 0.02 0.02 0.02 0.02 0.04 0.04 0.03 0.03 0.05 0.07 0.09 0.13 0.13 0.10 0.07 0.07 0.08 0.10 0.09 0.08 0.09 0.08 0.05 0.07 0.07 0.05 0.05 0.04 0.04 0.04 0.05 0.04
0.05 0.03 0.02 0.02 0.02 0.01 0.01 0.00 0.01 0.02 0.03 0.02 0.01 0.02 0.02 0.04 0.04 0.04 0.04 0.04 0.04 0.05 0.06 0.07 0.07 0.06 0.07 0.09 0.12 0.13 0.10 0.08 0.07 0.06 0.06 0.05 0.04 0.08 0.07 0.06 0.06 0.05 0.05
0.03 0.02 0.02 0.02 0.01 0.01 0.00 0.00 0.00 0.01 0.01 0.01 0.01 0.02 0.03 0.04 0.04 0.04 0.04 0.03 0.03 0.04 0.04 0.05 0.06 0.06 0.07 0.09 0.10 0.09 0.08 0.08 0.08 0.07 0.06 0.04 0.04 0.06 0.06 0.08 0.09 0.07 0.05
0.03 0.03 0.02 0.02 0.01 0.01 0.01 0.01 0.00 0.00 0.01 0.01 0.01 0.01 0.02 0.03 0.03 0.03 0.03 0.03 0.03 0.03 0.03 0.03 0.04 0.05 0.06 0.07 0.08 0.07 0.07 0.07 0.07 0.07 0.08 0.06 0.06 0.07 0.07 0.07 0.08 0.08 0.06
0.06 0.05 0.05 0.04 0.03 0.02 0.02 0.01 0.01 0.01 0.01 0.01 0.01 0.01 0.01 0.02 0.02 0.02 0.02 0.02 0.02 0.02 0.02 0.03 0.04 0.03 0.04 0.04 0.04 0.05 0.06 0.06 0.06 0.07 0.06 0.05 0.06 0.07 0.07 0.06 0.08 0.07 0.06
0.09 0.08 0.05 0.04 0.03 0.03 0.02 0.02 0.02 0.02 0.01 0.01 0.01 0.01 0.01 0.02 0.02 0.02 0.02 0.02 0.02 0.02 0.03 0.04 0.04 0.05 0.05 0.04 0.04 0.05 0.05 0.05 0.04 0.04 0.06 0.05 0.06 0.06 0.07 0.06 0.06 0.06 0.05
0.07 0.08 0.08 0.06 0.04 0.03 0.03 0.03 0.03 0.02 0.02 0.02 0.02 0.01 0.02 0.02 0.03 0.03 0.04 0.04 0.04 0.05 0.05 0.06 0.06 0.08 0.09 0.09 0.06 0.06 0.05 0.05 0.06 0.05 0.05 0.06 0.06 0.06 0.08 0.08 0.08 0.07 0.05
0.05 0.05 0.07 0.07 0.06 0.05 0.03 0.02 0.03 0.03 0.02 0.02 0.02 0.02 0.03 0.04 0.04 0.05 0.06 0.07 0.06 0.07 0.07 0.07 0.07 0.07 0.07 0.05 0.04 0.04 0.04 0.04 0.05 0.05 0.05 0.05 0.06 0.07 0.09 0.09 0.09 0.07 0.06
0.07 0.06 0.06 0.05 0.04 0.03 0.03 0.02 0.02 0.02 0.02 0.02 0.02 0.02 0.03 0.03 0.03 0.04 0.06 0.07 0.08 0.08 0.09 0.07 0.06 0.06 0.05 0.03 0.04 0.04 0.03 0.03 0.03 0.03 0.04 0.05 0.06 0.06 0.07 0.07 0.07 0.07 0.06
0.06 0.06 0.03 0.02 0.02 0.02 0.01 0.01 0.01 0.01 0.01 0.02 0.03 0.03 0.03 0.02 0.02 0.02 0.04 0.07 0.09 0.13 0.13 0.07 0.05 0.05 0.04 0.03 0.04 0.04 0.03 0.02 0.03 0.04 0.04 0.05 0.04 0.03 0.03 0.03 0.04 0.06 0.06
0.03 0.02 0.01 0.01 0.01 0.01 0.01 0.01 0.01 0.02 0.04 0.04 0.04 0.04 0.03 0.02 0.02 0.03 0.04 0.06 0.10 0.14 0.09 0.05 0.05 0.04 0.03 0.04 0.03 0.03 0.03 0.02 0.02 0.02 0.02 0.02 0.01 0.01 0.01 0.02 0.03 0.04 0.04
0.03 0.02 0.01 0.00 0.00 0.01 0.01 0.02 0.04 0.05 0.04 0.04 0.05 0.05 0.06 0.05 0.04 0.04 0.04 0.05 0.07 0.09 0.07 0.05 0.05 0.05 0.04 0.04 0.03 0.02 0.01 0.01 0.01 0.01 0.01 0.01 0.01 0.02 0.01 0.01 0.02 0.02 0.02
0.04 0.03 0.03 0.03 0.02 0.03 0.03 0.03 0.03 0.04 0.04 0.05 0.06 0.07 0.07 0.06 0.05 0.05 0.07 0.08 0.08 0.07 0.06 0.05 0.05 0.05 0.05 0.04 0.04 0.02 0.01 0.01 0.01 0.01 0.01 0.01 0.01 0.01 0.01 0.01 0.01 0.02 0.02
0.03 0.03 0.03 0.04 0.05 0.05 0.04 0.04 0.04 0.03 0.04 0.04 0.04 0.05 0.05 0.06 0.08 0.10 0.13 0.11 0.09 0.10 0.10 0.08 0.07 0.06 0.04 0.03 0.03 0.02 0.01 0.01 0.01 0.01 0.00 0.02 0.01 0.01 0.01 0.00 0.01 0.02 0.02
0.04 0.05 0.05 0.05 0.04 0.04 0.05 0.06 0.06 0.05 0.04 0.03 0.03 0.03 0.04 0.05 0.06 0.08 0.09 0.09 0.09 0.09 0.08 0.08 0.07 0.05 0.04 0.03 0.03 0.02 0.01 0.01 0.00 0.01 0.01 0.01 0.01 0.00 0.00 0.00 0.00 0.01 0.02
0.05 0.05 0.06 0.07 0.07 0.05 0.05 0.06 0.07 0.05 0.04 0.02 0.01 0.02 0.02 0.03 0.04 0.06 0.06 0.07 0.08 0.07 0.06 0.05 0.04 0.04 0.03 0.03 0.02 0.02 0.01 0.00 0.00 0.01 0.01 0.01 0.01 0.01 0.00 0.00 0.00 0.00 0.01
0.09 0.08 0.06 0.06 0.06 0.08 0.09 0.06 0.05 0.04 0.02 0.01 0.01 0.01 0.01 0.03 0.06 0.08 0.08 0.08 0.06 0.05 0.05 0.04 0.04 0.03 0.02 0.02 0.02 0.02 0.01 0.01 0.01 0.01 0.01 0.01 0.01 0.01 0.01 0.00 0.00 0.00 0.01
0.07 0.07 0.07 0.06 0.07 0.07 0.05 0.04 0.03 0.02 0.02 0.02 0.01 0.01 0.01 0.02 0.04 0.04 0.04 0.04 0.04 0.03 0.03 0.02 0.02 0.02 0.02 0.01 0.02 0.03 0.02 0.01 0.01 0.01 0.01 0.00 0.01 0.01 0.01 0.00 0.00 0.00 0.01
0.03 0.03 0.03 0.03 0.04 0.05 0.05 0.05 0.03 0.02 0.02 0.02 0.01 0.01 0.01 0.01 0.01 0.01 0.02 0.02 0.03 0.03 0.02 0.02 0.02 0.02 0.02 0.02 0.03 0.04 0.03 0.02 0.01 0.01 0.01 0.00 0.00 0.00 0.00 0.01 0.01 0.01 0.01
0.01 0.02 0.02 0.03 0.03 0.03 0.03 0.04 0.04 0.04 0.03 0.02 0.02 0.01 0.01 0.01 0.01 0.01 0.01 0.03 0.03 0.04 0.04 0.03 0.03 0.03 0.03 0.03 0.03 0.03 0.03 0.03 0.02 0.01 0.01 0.00 0.00 0.00 0.00 0.00 0.00 0.01 0.01
MSLP
1011.67 1012.02 1012.34 1012.60 1012.80 1012.96 1013.09 1013.24 1013.45 1013.72 1014.05 1014.39 1014.72 1014.98 1015.13 1015.18 1015.11 1014.95 1014.75 1014.54 1014.35 1014.20 1014.10 1014.03 1013.98 1013.92 1013.84 1013.73 1013.61 1013.49 1013.37 1013.27 1013.19 1013.12 1013.03 1012.90 1012.72 1012.46 1012.14 1011.78 1011.40 1011.05 1010.75
1011.55 1011.94 1012.27 1012.52 1012.67 1012.76 1012.82 1012.93 1013.11 1013.40 1013.76 1014.17 1014.57 1014.90 1015.11 1015.17 1015.08 1014.89 1014.63 1014.36 1014.13 1013.96 1013.85 1013.81 1013.81 1013.81 1013.80 1013.75 1013.68 1013.60 1013.52 1013.46 1013.42 1013.39 1013.35 1013.27 1013.12 1012.89 1012.57 1012.16 1011.71 1011.25 1010.82
1011.15 1011.60 1011.97 1012.23 1012.37 1012.43 1012.46 1012.53 1012.70 1012.98 1013.37 1013.81 1014.26 1014.63 1014.87 1014.93 1014.84 1014.61 1014.31 1014.00 1013.73 1013.54 1013.45 1013.45 1013.49 1013.56 1013.61 1013.64 1013.63 1013.60 1013.58 1013.56 1013.57 1013.60 1013.61 1013.59 1013.50 1013.31 1013.00 1012.59 1012.09 1011.55 1011.01
1010.45 1010.96 1011.40 1011.71 1011.89 1011.96 1011.98 1012.04 1012.19 1012.46 1012.85 1013.31 1013.77 1014.15 1014.40 1014.47 1014.36 1014.12 1013.79 1013.46 1013.17 1012.99 1012.91 1012.93 1013.03 1013.15 1013.27 1013.36 1013.41 1013.44 1013.47 1013.51 1013.57 1013.64 1013.72 1013.76 1013.73 1013.60 1013.33 1012.94 1012.44 1011.86 1011.24
1009.52 1010.09 1010.60 1010.99 1011.23 1011.34 1011.40 1011.46 1011.60 1011.86 1012.22 1012.67 1013.12 1013.49 1013.74 1013.81 1013.70 1013.46 1013.13 1012.79 1012.51 1012.33 1012.27 1012.32 1012.45 1012.62 1012.78 1012.92 1013.03 1013.11 1013.18 1013.26 1013.36 1013.49 1013.61 1013.71 1013.74 1013.67 1013.46 1013.12 1012.64 1012.07 1011.43
1008.51 1009.10 1009.68 1010.14 1010.45 1010.63 1010.72 1010.80 1010.94 1011.17 1011.51 1011.92 1012.34 1012.70 1012.94 1013.02 1012.92 1012.70 1012.39 1012.07 1011.81 1011.64 1011.59 1011.66 1011.80 1011.99 1012.19 1012.36 1012.50 1012.61 1012.71 1012.82 1012.95 1013.10 1013.27 1013.41 1013.49 1013.48 1013.34 1013.06 1012.64 1012.11 1011.50
1007.57 1008.16 1008.77 1009.29 1009.66 1009.89 1010.02 1010.12 1010.24 1010.44 1010.73 1011.09 1011.47 1011.81 1012.04 1012.13 1012.07 1011.89 1011.62 1011.35 1011.11 1010.96 1010.92 1010.99 1011.14 1011.33 1011.52 1011.70 1011.85 1011.97 1012.08 1012.21 1012.35 1012.52 1012.71 1012.88 1013.00 1013.04 1012.96 1012.76 1012.42 1011.97 1011.43
1006.87 1007.42 1008.02 1008.55 1008.95 1009.20 1009.35 1009.43 1009.52 1009.68 1009.91 1010.21 1010.54 1010.85 1011.08 1011.20 1011.18 1011.05 1010.85 1010.63 1010.44 1010.32 1010.29 1010.34 1010.47 1010.64 1010.81 1010.98 1011.12 1011.24 1011.36 1011.48 1011.63 1011.80 1011.99 1012.16 1012.31 1012.39 1012.38 1012.25 1012.01 1011.66 1011.21
1006.54 1007.01 1007.54 1008.03 1008.40 1008.63 1008.74 1008.78 1008.82 1008.90 1009.06 1009.28 1009.56 1009.83 1010.05 1010.20 1010.23 1010.18 1010.05 1009.90 1009.76 1009.67 1009.64 1009.69 1009.79 1009.93 1010.08 1010.22 1010.34 1010.46 1010.57 1010.69 1010.84 1011.00 1011.18 1011.36 1011.52 1011.63 1011.67 1011.61 1011.47 1011.22 1010.89
1006.63 1006.98 1007.39 1007.78 1008.05 1008.20 1008.23 1008.19 1008.13 1008.11 1008.17 1008.31 1008.50 1008.73 1008.94 1009.10 1009.19 1009.20 1009.16 1009.08 1009.00 1008.95 1008.94 1008.98 1009.06 1009.17 1009.30 1009.42 1009.54 1009.65 1009.76 1009.89 1010.04 1010.20 1010.38 1010.56 1010.72 1010.85 1010.92 1010.93 1010.87 1010.73 1010.52
1007.12 1007.32 1007.58 1007.80 1007.93 1007.94 1007.83 1007.66 1007.48 1007.33 1007.26 1007.28 1007.39 1007.54 1007.72 1007.88 1008.00 1008.07 1008.10 1008.09 1008.08 1008.07 1008.09 1008.14 1008.23 1008.33 1008.45 1008.57 1008.70 1008.83 1008.96 1009.12 1009.28 1009.45 1009.64 1009.81 1009.98 1010.12 1010.23 1010.29 1010.30 1010.25 1010.15
1007.90 1007.94 1008.01 1008.05 1007.99 1007.81 1007.54 1007.21 1006.87 1006.58 1006.36 1006.24 1006.22 1006.28 1006.39 1006.51 1006.64 1006.74 1006.82 1006.88 1006.93 1006.98 1007.05 1007.13 1007.24 1007.37 1007.51 1007.67 1007.84 1008.01 1008.20 1008.39 1008.59 1008.80 1009.00 1009.19 1009.36 1009.51 1009.64 1009.74 1009.80 1009.82 1009.80
1008.83 1008.72 1008.60 1008.43 1008.17 1007.81 1007.36 1006.86 1006.36 1005.90 1005.52 1005.24 1005.07 1004.99 1005.00 1005.05 1005.13 1005.23 1005.34 1005.44 1005.55 1005.67 1005.80 1005.95 1006.12 1006.31 1006.52 1006.74 1006.98 1007.22 1007.48 1007.74 1007.99 1008.24 1008.47 1008.68 1008.87 1009.03 1009.17 1009.29 1009.38 1009.45 1009.48
1009.76 1009.52 1009.23 1008.88 1008.43 1007.89 1007.28 1006.63 1005.97 1005.35 1004.81 1004.36 1004.02 1003.79 1003.64 1003.58 1003.59 1003.64 1003.74 1003.86 1004.02 1004.21 1004.42 1004.65 1004.92 1005.20 1005.50 1005.82 1006.16 1006.50 1006.84 1007.18 1007.50 1007.80 1008.06 1008.30 1008.50 1008.66 1008.80 1008.93 1009.03 1009.12 1009.18
1010.58 1010.23 1009.81 1009.31 1008.73 1008.05 1007.32 1006.55 1005.77 1005.02 1004.33 1003.72 1003.20 1002.78 1002.47 1002.26 1002.15 1002.12 1002.17 1002.30 1002.49 1002.74 1003.04 1003.38 1003.75 1004.15 1004.57 1005.00 1005.44 1005.88 1006.32 1006.73 1007.12 1007.47 1007.76 1008.02 1008.22 1008.38 1008.52 1008.63 1008.73 1008.81 1008.88
1011.19 1010.78 1010.28 1009.69 1009.02 1008.28 1007.49 1006.65 1005.80 1004.96 1004.16 1003.40 1002.72 1002.12 1001.63 1001.25 1000.99 1000.86 1000.84 1000.95 1001.16 1001.46 1001.84 1002.28 1002.77 1003.29 1003.83 1004.37 1004.92 1005.45 1005.97 1006.44 1006.88 1007.25 1007.57 1007.82 1008.02 1008.17 1008.28 1008.37 1008.44 1008.51 1008.56
1011.58 1011.14 1010.61 1010.00 1009.32 1008.58 1007.78 1006.96 1006.09 1005.22 1004.34 1003.48 1002.66 1001.91 1001.24 1000.70 1000.29 1000.04 999.94 1000.00 1000.22 1000.55 1001.00 1001.53 1002.12 1002.75 1003.39 1004.03 1004.66 1005.26 1005.82 1006.33 1006.78 1007.16 1007.48 1007.71 1007.88 1008.00 1008.08 1008.13 1008.17 1008.20 1008.22
1011.75 1011.32 1010.81 1010.23 1009.60 1008.92 1008.20 1007.44 1006.63 1005.77 1004.88 1003.97 1003.06 1002.19 1001.40 1000.71 1000.17 999.81 999.63 999.64 999.84 1000.19 1000.68 1001.27 1001.93 1002.63 1003.33 1004.03 1004.70 1005.33 1005.91 1006.41 1006.85 1007.20 1007.48 1007.68 1007.81 1007.88 1007.91 1007.91 1007.91 1007.89 1007.88
1011.75 1011.36 1010.91 1010.41 1009.88 1009.31 1008.71 1008.06 1007.34 1006.56 1005.71 1004.80 1003.87 1002.94 1002.06 1001.28 1000.65 1000.20 999.96 999.92 1000.09 1000.43 1000.93 1001.54 1002.23 1002.95 1003.68 1004.38 1005.05 1005.66 1006.20 1006.67 1007.05 1007.35 1007.57 1007.71 1007.78 1007.80 1007.78 1007.73 1007.68 1007.63 1007.58
1011.65 1011.32 1010.96 1010.56 1010.15 1009.72 1009.25 1008.73 1008.15 1007.47 1006.70 1005.86 1004.95 1004.03 1003.13 1002.32 1001.65 1001.15 1000.86 1000.78 1000.91 1001.23 1001.70 1002.29 1002.96 1003.65 1004.35 1005.01 1005.63 1006.18 1006.66 1007.05 1007.36 1007.58 1007.73 1007.80 1007.81 1007.77 1007.70 1007.61 1007.52 1007.44 1007.37
1011.51 1011.27 1010.99 1010.70 1010.40 1010.10 1009.76 1009.38 1008.92 1008.37 1007.72 1006.97 1006.15 1005.29 1004.44 1003.66 1003.00 1002.50 1002.19 1002.08 1002.18 1002.45 1002.87 1003.40 1003.99 1004.61 1005.23 1005.81 1006.34 1006.80 1007.18 1007.48 1007.71 1007.85 1007.92 1007.93 1007.88 1007.79 1007.68 1007.56 1007.45 1007.35 1007.26
1011.40 1011.23 1011.04 1010.84 1010.64 1010.43 1010.20 1009.93 1009.58 1009.15 1008.62 1007.99 1007.29 1006.54 1005.80 1005.10 1004.50 1004.04 1003.74 1003.62 1003.68 1003.89 1004.23 1004.67 1005.16 1005.67 1006.17 1006.64 1007.05 1007.40 1007.68 1007.89 1008.03 1008.10 1008.11 1008.07 1007.98 1007.86 1007.72 1007.59 1007.47 1007.36 1007.28
1011.35 1011.25 1011.12 1010.98 1010.84 1010.69 1010.52 1010.32 1010.06 1009.72 1009.30 1008.80 1008.23 1007.62 1007.01 1006.44 1005.94 1005.55 1005.29 1005.17 1005.20 1005.34 1005.59 1005.91 1006.28 1006.65 1007.02 1007.36 1007.66 1007.90 1008.09 1008.22 1008.29 1008.30 1008.27 1008.19 1008.09 1007.96 1007.82 1007.69 1007.58 1007.49 1007.41
1011.36 1011.32 1011.24 1011.14 1011.01 1010.88 1010.72 1010.54 1010.32 1010.05 1009.71 1009.33 1008.89 1008.43 1007.97 1007.53 1007.15 1006.85 1006.64 1006.54 1006.53 1006.61 1006.76 1006.97 1007.20 1007.44 1007.68 1007.89 1008.08 1008.23 1008.34 1008.41 1008.44 1008.43 1008.38 1008.30 1008.20 1008.09 1007.97 1007.86 1007.77 1007.70 1007.65
1011.44 1011.45 1011.39 1011.29 1011.16 1011.00 1010.82 1010.62 1010.40 1010.15 1009.88 1009.57 1009.25 1008.92 1008.60 1008.30 1008.04 1007.83 1007.68 1007.59 1007.56 1007.58 1007.64 1007.73 1007.84 1007.97 1008.08 1008.20 1008.30 1008.38 1008.45 1008.49 1008.51 1008.49 1008.46 1008.40 1008.32 1008.24 1008.15 1008.08 1008.02 1007.98 1007.96
1011.54 1011.58 1011.54 1011.44 1011.27 1011.07 1010.84 1010.60 1010.35 1010.10 1009.84 1009.60 1009.36 1009.14 1008.93 1008.74 1008.58 1008.45 1008.35 1008.28 1008.22 1008.20 1008.18 1008.18 1008.20 1008.22 1008.26 1008.30 1008.34 1008.39 1008.44 1008.48 1008.51 1008.52 1008.52 1008.49 1008.46 1008.41 1008.37 1008.33 1008.31 1008.30 1008.30
Thickness
5813 5814 5814 5812 5809 5806 5802 5799 5796 5795 5793 5790 5787 5784 5782 5783 5783 5783 5782 5781 5780 5778 5777 5775 5773 5771 5769 5767 5766 5765 5762 5761 5761 5757 5755 5758 5761 5760 5760 5759 5758 5757 5756
5808 5809 5809 5809 5806 5803 5800 5798 5794 5793 5792 5790 5788 5786 5784 5782 5782 5782 5781 5780 5778 5777 5776 5774 5772 5770 5768 5766 5765 5763 5759 5758 5758 5752 5747 5743 5747 5753 5758 5756 5755 5755 5754
5808 5807 5807 5805 5803 5801 5799 5797 5794 5792 5791 5790 5787 5785 5782 5780 5778 5778 5777 5778 5777 5776 5775 5773 5771 5769 5767 5764 5763 5762 5758 5754 5754 5753 5746 5738 5734 5741 5749 5751 5752 5751 5749
5811 5808 5806 5804 5802 5800 5800 5797 5794 5792 5790 5789 5785 5781 5776 5773 5774 5775 5775 5775 5775 5774 5773 5772 5769 5768 5766 5764 5762 5761 5758 5754 5749 5749 5748 5745 5742 5736 5736 5742 5746 5746 5745
5812 5809 5807 5805 5803 5802 5799 5796 5793 5790 5789 5787 5784 5780 5777 5775 5775 5774 5773 5772 5772 5772 5771 5769 5767 5765 5763 5762 5760 5758 5756 5753 5749 5746 5743 5741 5740 5738 5732 5730 5735 5738 5741
5814 5810 5808 5805 5801 5800 5798 5795 5791 5788 5788 5786 5783 5780 5776 5774 5772 5770 5769 5768 5768 5768 5767 5766 5764 5763 5761 5759 5757 5756 5754 5751 5748 5745 5742 5738 5735 5733 5729 5726 5727 5728 5733
5812 5808 5804 5800 5798 5797 5795 5793 5789 5786 5786 5784 5782 5779 5776 5774 5771 5769 5767 5765 5764 5763 5763 5763 5761 5760 5759 5757 5755 5753 5750 5748 5745 5742 5740 5738 5736 5734 5730 5725 5723 5723 5726
5809 5807 5804 5801 5798 5797 5794 5791 5788 5785 5784 5782 5780 5779 5776 5773 5771 5769 5767 5764 5762 5762 5761 5760 5759 5758 5756 5754 5752 5749 5747 5745 5742 5740 5737 5735 5733 5732 5729 5725 5721 5717 5717
5806 5804 5803 5801 5798 5796 5794 5791 5787 5784 5782 5781 5779 5776 5774 5772 5770 5768 5765 5762 5761 5761 5759 5758 5756 5754 5752 5750 5748 5745 5742 5740 5738 5735 5733 5731 5730 5729 5727 5725 5721 5714 5709
5801 5800 5800 5799 5797 5794 5792 5789 5786 5783 5781 5779 5777 5775 5772 5770 5768 5766 5762 5760 5759 5757 5755 5753 5751 5749 5747 5745 5742 5740 5737 5734 5732 5731 5728 5726 5725 5724 5722 5720 5718 5715 5710
5796 5797 5796 5795 5794 5791 5788 5785 5783 5780 5777 5776 5774 5771 5769 5767 5764 5761 5759 5757 5755 5753 5750 5748 5745 5743 5741 5738 5736 5733 5731 5728 5726 5725 5723 5721 5721 5718 5716 5715 5712 5710 5707
5793 5793 5792 5790 5788 5785 5784 5781 5779 5777 5775 5774 5770 5767 5765 5762 5759 5756 5754 5752 5749 5747 5745 5742 5739 5737 5734 5732 5729 5727 5725 5722 5720 5718 5717 5716 5716 5713 5711 5709 5706 5705 5703
5788 5786 5784 5783 5781 5780 5779 5777 5775 5774 5772 5770 5766 5762 5759 5756 5753 5751 5749 5746 5743 5740 5738 5735 5732 5729 5727 5726 5724 5722 5720 5717 5714 5713 5711 5710 5708 5706 5705 5703 5701 5699 5699
5781 5778 5776 5776 5776 5775 5773 5772 5770 5770 5768 5764 5761 5757 5753 5751 5748 5746 5743 5740 5737 5733 5730 5728 5726 5723 5721 5720 5718 5716 5713 5711 5708 5707 5706 5704 5702 5700 5698 5697 5695 5693 5691
5777 5775 5772 5771 5770 5768 5767 5766 5765 5764 5762 5758 5754 5751 5749 5746 5743 5739 5736 5733 5730 5727 5724 5721 5718 5717 5715 5714 5711 5709 5706 5703 5701 5700 5698 5698 5696 5695 5692 5691 5688 5686 5683
5772 5771 5769 5767 5765 5764 5763 5761 5760 5758 5756 5751 5748 5746 5742 5739 5735 5733 5730 5726 5723 5721 5718 5714 5712 5710 5709 5707 5705 5702 5699 5697 5694 5692 5691 5690 5689 5688 5686 5684 5683 5681 5678
5768 5766 5764 5762 5760 5760 5759 5757 5755 5753 5750 5745 5741 5738 5735 5732 5729 5727 5723 5720 5717 5714 5711 5709 5706 5703 5701 5699 5697 5695 5692 5689 5686 5684 5682 5683 5682 5679 5677 5676 5676 5675 5675
5764 5762 5760 5757 5756 5755 5753 5751 5749 5745 5741 5737 5734 5731 5729 5726 5723 5720 5716 5714 5711 5708 5705 5702 5700 5696 5694 5692 5689 5687 5683 5680 5678 5677 5675 5673 5671 5671 5668 5667 5667 5666 5667
5761 5759 5757 5754 5751 5748 5746 5743 5739 5736 5732 5729 5727 5725 5722 5719 5715 5712 5710 5708 5704 5702 5699 5697 5693 5690 5687 5685 5683 5679 5675 5672 5670 5669 5667 5665 5663 5662 5661 5658 5657 5657 5659
5755 5753 5751 5748 5744 5742 5740 5735 5730 5727 5724 5722 5720 5718 5715 5712 5709 5707 5705 5702 5699 5696 5693 5690 5686 5684 5681 5679 5676 5672 5668 5664 5662 5661 5660 5659 5656 5655 5653 5650 5648 5648 5649
5748 5746 5743 5738 5736 5734 5731 5726 5722 5719 5718 5716 5713 5711 5708 5706 5704 5701 5699 5696 5693 5689 5685 5682 5678 5676 5674 5671 5669 5665 5661 5657 5654 5652 5651 5651 5649 5648 5646 5644 5642 5642 5642
5739 5737 5733 5728 5727 5726 5723 5717 5715 5714 5712 5709 5705 5703 5701 5700 5699 5695 5692 5689 5686 5681 5677 5673 5669 5667 5666 5664 5661 5659 5656 5653 5648 5645 5644 5643 5643 5641 5639 5638 5637 5636 5635
5729 5728 5725 5720 5719 5719 5716 5711 5709 5708 5705 5701 5697 5695 5694 5692 5690 5687 5684 5681 5677 5673 5669 5665 5661 5659 5657 5655 5653 5651 5649 5645 5642 5640 5639 5638 5636 5634 5632 5631 5630 5628 5626
5720 5719 5716 5712 5710 5710 5709 5706 5704 5702 5698 5693 5690 5688 5685 5683 5682 5680 5677 5673 5670 5666 5662 5658 5654 5651 5649 5646 5644 5642 5640 5638 5635 5632 5632 5631 5629 5626 5625 5624 5622 5620 5618
5712 5710 5707 5704 5703 5702 5701 5699 5697 5694 5689 5686 5683 5680 5678 5675 5673 5671 5668 5666 5664 5661 5657 5654 5650 5645 5642 5642 5639 5635 5632 5630 5628 5625 5622 5621 5619 5617 5616 5615 5613 5612 5610
5705 5702 5699 5697 5695 5694 5692 5691 5689 5686 5681 5677 5675 5672 5670 5667 5665 5662 5660 5659 5657 5655 5652 5649 5645 5642 5640 5637 5633 5630 5628 5625 5622 5617 5614 5612 5610 5609 5608 5607 5606 5605 5603